| time (UTC) | temp F | wind direction | speed MPH | gust MPH | rain 1hr in | rain 24hr in | rain mn in | humidity % | barometer mb |
| 20260906214521 | 88 | 57 | 4.0 | 8.0 | 0.00 | 0.00 | 0.00 | 37 | 1002.0 |
| 20260906213020 | 88 | 23 | 3.0 | 7.0 | 0.00 | 0.00 | 0.00 | 36 | 1002.1 |
| 20260906211518 | 88 | 63 | 0.0 | 3.0 | 0.00 | 0.00 | 0.00 | 36 | 1002.5 |
| 20260906210015 | 87 | 33 | 2.0 | 4.0 | 0.00 | 0.00 | 0.00 | 36 | 1002.8 |
| 20260906204515 | 88 | 22 | 5.0 | 8.0 | 0.00 | 0.00 | 0.00 | 35 | 1002.8 |
| 20260906203014 | 88 | 26 | 3.0 | 9.0 | 0.00 | 0.00 | 0.00 | 38 | 1002.9 |
| 20260906201513 | 88 | 55 | 3.0 | 7.0 | 0.00 | 0.00 | 0.00 | 38 | 1003.0 |
| 20260906200009 | 88 | 113 | 0.0 | 6.0 | 0.00 | 0.00 | 0.00 | 41 | 1003.3 |
| 20260906194508 | 86 | 347 | 4.0 | 9.0 | 0.00 | 0.00 | 0.00 | 41 | 1003.3 |
| 20260906193005 | 86 | 14 | 4.0 | 7.0 | 0.00 | 0.00 | 0.00 | 40 | 1003.5 |
| 20260906191503 | 84 | 227 | 2.0 | 6.0 | 0.00 | 0.00 | 0.00 | 42 | 1003.7 |
| 20260906190100 | 84 | 31 | 4.0 | 6.0 | 0.00 | 0.00 | 0.00 | 45 | 1003.8 |
| 20260906184557 | 83 | 212 | 0.0 | 6.0 | 0.00 | 0.00 | 0.00 | 47 | 1004.3 |
| 20260906183112 | 82 | 360 | 4.0 | 7.0 | 0.00 | 0.00 | 0.00 | 49 | 1004.5 |
| 20260906181555 | 81 | 50 | 2.0 | 7.0 | 0.00 | 0.00 | 0.00 | 49 | 1004.7 |
| 20260906180111 | 80 | 67 | 4.0 | 7.0 | 0.00 | 0.00 | 0.00 | 51 | 1004.8 |
| 20260906174546 | 79 | 67 | 0.0 | 3.0 | 0.00 | 0.00 | 0.00 | 55 | 1005.4 |
| 20260906173043 | 78 | 14 | 2.0 | 5.0 | 0.00 | 0.00 | 0.00 | 57 | 1005.6 |
| 20260906171541 | 77 | 36 | 3.0 | 5.0 | 0.00 | 0.00 | 0.00 | 58 | 1005.8 |
| 20260906170041 | 78 | 107 | 2.0 | 5.0 | 0.00 | 0.00 | 0.00 | 58 | 1006.1 |
| 20260906164536 | 77 | 36 | 2.0 | 7.0 | 0.00 | 0.00 | 0.00 | 61 | 1006.2 |
| 20260906163035 | 74 | 111 | 2.0 | 5.0 | 0.00 | 0.00 | 0.00 | 63 | 1006.2 |
| 20260906161531 | 73 | 102 | 3.0 | 7.0 | 0.00 | 0.00 | 0.00 | 66 | 1006.1 |
| 20260906160027 | 72 | 105 | 2.0 | 6.0 | 0.00 | 0.00 | 0.00 | 68 | 1006.1 |
| 20260906154523 | 72 | 79 | 2.0 | 6.0 | 0.00 | 0.00 | 0.00 | 68 | 1006.4 |
| 20260906153019 | 70 | 63 | 3.0 | 6.0 | 0.00 | 0.00 | 0.00 | 71 | 1006.3 |
| 20260906151526 | 68 | 29 | 5.0 | 8.0 | 0.00 | 0.00 | 0.00 | 73 | 1006.6 |
| 20260906150016 | 67 | 344 | 3.0 | 6.0 | 0.00 | 0.00 | 0.00 | 75 | 1006.7 |
| 20260906144514 | 67 | 30 | 3.0 | 7.0 | 0.00 | 0.00 | 0.00 | 75 | 1006.7 |
| 20260906143012 | 66 | 62 | 2.0 | 8.0 | 0.00 | 0.00 | 0.00 | 77 | 1006.6 |
| 20260906141508 | 66 | 323 | 2.0 | 5.0 | 0.00 | 0.00 | 0.00 | 77 | 1006.6 |
| 20260906140007 | 64 | 18 | 2.0 | 7.0 | 0.00 | 0.00 | 0.00 | 78 | 1006.6 |
| 20260906134501 | 64 | 306 | 2.0 | 5.0 | 0.00 | 0.00 | 0.00 | 78 | 1006.7 |
| 20260906133103 | 63 | 327 | 1.0 | 3.0 | 0.00 | 0.00 | 0.00 | 77 | 1006.7 |
| 20260906131557 | 63 | 327 | 2.0 | 5.0 | 0.00 | 0.00 | 0.00 | 77 | 1006.7 |
| 20260906130105 | 62 | 336 | 0.0 | 4.0 | 0.00 | 0.00 | 0.00 | 76 | 1006.6 |
| 20260906124551 | 62 | 332 | 0.0 | 3.0 | 0.00 | 0.00 | 0.00 | 76 | 1006.3 |
| 20260906123048 | 62 | 329 | 0.0 | 1.0 | 0.00 | 0.00 | 0.00 | 75 | 1006.3 |
| 20260906121556 | 62 | 338 | 2.0 | 4.0 | 0.00 | 0.00 | 0.00 | 75 | 1006.2 |
| 20260906120047 | 62 | 326 | 0.0 | 3.0 | 0.00 | 0.00 | 0.00 | 74 | 1006.2 |
| 20260906114556 | 62 | 350 | 1.0 | 2.0 | 0.00 | 0.00 | 0.00 | 74 | 1006.2 |
| 20260906113054 | 63 | 326 | 1.0 | 3.0 | 0.00 | 0.00 | 0.00 | 74 | 1006.1 |
| 20260906111544 | 63 | 32 | 0.0 | 1.0 | 0.00 | 0.00 | 0.00 | 75 | 1005.9 |
| 20260906110044 | 63 | 32 | 0.0 | 1.0 | 0.00 | 0.00 | 0.00 | 76 | 1006.0 |
| 20260906104540 | 64 | 32 | 0.0 | 1.0 | 0.00 | 0.00 | 0.00 | 75 | 1005.9 |
| 20260906103037 | 64 | 32 | 0.0 | 2.0 | 0.00 | 0.00 | 0.00 | 74 | 1006.1 |
| 20260906101535 | 65 | 32 | 0.0 | 4.0 | 0.00 | 0.00 | 0.00 | 72 | 1006.0 |
| 20260906100034 | 65 | 21 | 2.0 | 4.0 | 0.00 | 0.00 | 0.00 | 70 | 1006.0 |
| 20260906094534 | 65 | 28 | 1.0 | 3.0 | 0.00 | 0.00 | 0.00 | 68 | 1006.0 |
| 20260906093030 | 66 | 24 | 1.0 | 5.0 | 0.00 | 0.00 | 0.00 | 67 | 1005.9 |
| 20260906091533 | 66 | 17 | 2.0 | 5.0 | 0.00 | 0.00 | 0.00 | 67 | 1005.7 |
| 20260906090028 | 66 | 41 | 3.0 | 6.0 | 0.00 | 0.00 | 0.00 | 66 | 1005.2 |
| 20260906084523 | 67 | 349 | 4.0 | 8.0 | 0.00 | 0.00 | 0.00 | 65 | 1005.1 |
| 20260906083021 | 68 | 338 | 3.0 | 8.0 | 0.00 | 0.00 | 0.00 | 63 | 1005.2 |
| 20260906081527 | 68 | 28 | 3.0 | 8.0 | 0.00 | 0.00 | 0.00 | 62 | 1005.4 |
| 20260906080014 | 69 | 34 | 4.0 | 9.0 | 0.00 | 0.00 | 0.00 | 59 | 1005.4 |
| 20260906074519 | 69 | 29 | 3.0 | 7.0 | 0.00 | 0.00 | 0.00 | 54 | 1005.3 |
| 20260906073011 | 70 | 14 | 4.0 | 7.0 | 0.00 | 0.00 | 0.00 | 52 | 1005.4 |
| 20260906071511 | 71 | 355 | 2.0 | 5.0 | 0.00 | 0.00 | 0.00 | 50 | 1005.3 |
| 20260906070009 | 71 | 360 | 2.0 | 5.0 | 0.00 | 0.00 | 0.00 | 48 | 1005.3 |
| 20260906064509 | 71 | 259 | 0.0 | 5.0 | 0.00 | 0.00 | 0.00 | 48 | 1005.2 |
| 20260906063007 | 71 | 347 | 1.0 | 4.0 | 0.00 | 0.00 | 0.00 | 49 | 1005.1 |
| 20260906061505 | 71 | 338 | 3.0 | 5.0 | 0.00 | 0.00 | 0.00 | 51 | 1005.1 |
| 20260906060010 | 70 | 221 | 2.0 | 5.0 | 0.00 | 0.00 | 0.00 | 52 | 1005.5 |
| 20260906054601 | 71 | 142 | 0.0 | 0.0 | 0.00 | 0.00 | 0.00 | 52 | 1005.3 |
| 20260906053101 | 71 | 290 | 0.0 | 0.0 | 0.00 | 0.00 | 0.00 | 53 | 1005.7 |
| 20260906051603 | 72 | 327 | 0.0 | 0.0 | 0.00 | 0.00 | 0.00 | 48 | 1005.5 |
| 20260906050058 | 72 | 328 | 0.0 | 2.0 | 0.00 | 0.00 | 0.00 | 48 | 1005.2 |
| 20260906044556 | 71 | 244 | 2.0 | 7.0 | 0.00 | 0.00 | 0.00 | 50 | 1005.4 |
| 20260906043055 | 73 | 115 | 0.0 | 7.0 | 0.00 | 0.00 | 0.00 | 46 | 1005.0 |
| 20260906041555 | 74 | 30 | 1.0 | 3.0 | 0.00 | 0.00 | 0.00 | 46 | 1004.6 |
| 20260906040054 | 76 | 76 | 0.0 | 3.0 | 0.00 | 0.00 | 0.00 | 42 | 1004.3 |
| 20260906034554 | 77 | 18 | 1.0 | 3.0 | 0.00 | 0.00 | 0.00 | 38 | 1004.1 |
| 20260906033054 | 77 | 26 | 3.0 | 6.0 | 0.00 | 0.00 | 0.00 | 38 | 1004.1 |
| 20260906031600 | 78 | 57 | 2.0 | 6.0 | 0.00 | 0.00 | 0.00 | 37 | 1004.0 |
| 20260906030053 | 78 | 340 | 2.0 | 7.0 | 0.00 | 0.00 | 0.00 | 37 | 1003.6 |
| 20260906024552 | 79 | 55 | 3.0 | 8.0 | 0.00 | 0.00 | 0.00 | 37 | 1003.5 |
| 20260906023052 | 79 | 355 | 2.0 | 6.0 | 0.00 | 0.00 | 0.00 | 36 | 1003.4 |
| 20260906021551 | 79 | 321 | 1.0 | 4.0 | 0.00 | 0.00 | 0.00 | 36 | 1003.3 |
| 20260906020058 | 81 | 360 | 2.0 | 4.0 | 0.00 | 0.00 | 0.00 | 34 | 1003.2 |
| 20260906014550 | 82 | 360 | 1.0 | 4.0 | 0.00 | 0.00 | 0.00 | 32 | 1002.8 |
| 20260906013050 | 84 | 301 | 1.0 | 5.0 | 0.00 | 0.00 | 0.00 | 31 | 1002.6 |
| 20260906011550 | 85 | 325 | 2.0 | 6.0 | 0.00 | 0.00 | 0.00 | 30 | 1002.6 |
| 20260906010049 | 86 | 292 | 1.0 | 8.0 | 0.00 | 0.00 | 0.00 | 29 | 1002.6 |
| 20260906004548 | 87 | 320 | 3.0 | 7.0 | 0.00 | 0.00 | 0.00 | 27 | 1002.5 |
| 20260906003048 | 88 | 303 | 2.0 | 9.0 | 0.00 | 0.00 | 0.00 | 27 | 1002.6 |
| 20260906001547 | 89 | 276 | 1.0 | 5.0 | 0.00 | 0.00 | 0.00 | 27 | 1002.5 |
| 20260906000047 | 90 | 284 | 1.0 | 3.0 | 0.00 | 0.00 | 0.00 | 27 | 1002.3 |
| 20260905234546 | 91 | 321 | 1.0 | 4.0 | 0.00 | 0.00 | 0.00 | 25 | 1002.3 |
| 20260905233049 | 92 | 11 | 1.0 | 4.0 | 0.00 | 0.00 | 0.00 | 24 | 1002.2 |
| 20260905231546 | 92 | 80 | 1.0 | 2.0 | 0.00 | 0.00 | 0.00 | 23 | 1002.2 |
| 20260905230050 | 92 | 134 | 0.0 | 4.0 | 0.00 | 0.00 | 0.00 | 23 | 1002.1 |
| 20260905224600 | 93 | 46 | 2.0 | 6.0 | 0.00 | 0.00 | 0.00 | 23 | 1002.0 |
| 20260905223044 | 93 | 60 | 1.0 | 7.0 | 0.00 | 0.00 | 0.00 | 23 | 1002.0 |
| 20260905221556 | 94 | 25 | 3.0 | 5.0 | 0.00 | 0.00 | 0.00 | 22 | 1002.1 |
| 20260905220043 | 92 | 360 | 3.0 | 8.0 | 0.00 | 0.00 | 0.00 | 23 | 1002.2 |